Terug naar catalogus

GALAXY 12

ActiefCommunicatieGEO
NORAD 27715·PAYLOAD· XX

Gelanceerd Apr 9, 2003 vanaf Guiana Space Centre

Loading…

TLE

VersSource: Space-Track

Epoch: Sep 14, 2026, 13:07 UTC

1 27715U 03013B   26257.54692088 -.00000108  00000-0  00000-0 0  9993
2 27715   7.2082  68.2037 0002743 283.2489  29.2574  0.98987165 52842

Volg GALAXY 12 in realtime met AllMySat

Download on the App Store